SL-16 DEB, 27750

Orbit data source: Space-Track

SL-16 DEB, 27750 is space debris in LEO originally from a launch on Fri, 25 Dec 1992 UTC launched from the Tyuratam Missile And Space Complex (TTMTR). Debris objects in space refer to the collection of defunct objects orbiting the Earth. Examples of debris include non-operational satellites, rocket bodies, and fragments generated from explosions, collisions, or faulty payload assembly.

Loading next visibility...
Identifier
27750, 1992-093JM
Orbit
LEO
Country
Flag of CISCIS
Related business
Manufacturer
Unknown
Mission
Spacecraft
Bus & Motor
Unknown
Mass
Unknown
Launch date (UTC)
1992-12-25 (33 years ago)
Launch vehicle
Unknown
Launch site
Tyuratam Missile And Space Complex (TTMTR)
Object type
Payload
Rocket body
Debris
Shape & HBR
Unknown shape, 0.1 m
Radar Cross Section
Small (<0.1 m²)

Expand to show TLE details & history
Last TLE update: 3 days ago

TLE from 3 days ago
0 SL-16 DEB
1 27750U 92093JM  26171.14584289  .00002376  00000-0  75234-3 0  9994
2 27750  71.1522  77.3168 0076349 251.0461 108.2391 14.39450806672291
Epoch: 2026-06-20T03:30Z
TLE epoch observation values (Epoch: 2026-06-20T03:30:00.825Z)
Latitude
0.00004°
Longitude
116.44871°
Altitude
780.186 km
Speed
7.455 km/s
True Right ascension
05h 09m 16s
True Declination
0° 00' 00"
Sunlit
Object was in daylight at epoch
Visualization orbit readout
Latitude
Unknown
Longitude
Unknown
Altitude
Unknown
Speed
Unknown
Apparent Right ascension
Unknown
Apparent Declination
Unknown
Sunlit
N/A
Visualization observer readout
Local Sidereal Time
12:54:21
Azimuth
Unknown
Elevation
Unknown
Doppler factor
Unknown
Orbital elements
Apogee altitude
812.684 km
Perigee altitude
703.714 km
Semi-major axis
7,136.336 km
Eccentricity
0.00763
Inclination
71.1522°
RAAN
77.3168°
Arg. of periapsis
251.0461°
True anomaly
109.06754°
Mean anomaly
108.2391°
Eccentric anomaly
108.65357°
Mean motion
3.60023 °/min
Orbital period
99.99 mins
BSTAR
0.00075234
Loading maneuver chart data...
Computing Atmospheric mass density...

Documentation

Showing up to 5 results
|